Wind_Speed
24 25 25 26 29 30 31 32 33 36 36 36 34 32 33 34 34 35 35 35 35 32 32 36 38 34 34 35 35 38 40 38 38 36 33 35 38 40 40 38 38 39 37 34 31
26 27 28 30 30 31 32 33 36 38 39 36 35 32 31 33 33 35 34 34 31 32 31 33 35 31 30 31 33 36 37 36 36 35 36 39 40 36 37 38 34 37 40 38 35
28 29 31 32 31 31 33 35 37 39 39 37 34 33 30 31 33 32 32 31 29 31 30 30 31 27 26 28 30 34 35 37 35 39 38 38 37 37 37 31 34 35 39 40 39
30 31 31 31 32 34 35 37 37 38 38 38 33 31 30 30 31 30 30 28 28 30 27 26 26 24 24 25 30 32 35 38 37 39 43 37 36 40 40 34 35 35 36 40 41
32 32 33 34 36 37 37 37 38 36 38 36 34 31 29 29 30 28 27 27 26 27 25 24 24 22 22 25 31 34 34 36 37 38 41 45 44 41 37 38 36 38 43 45 45
36 36 37 37 38 38 37 37 36 37 37 34 34 32 29 29 28 29 26 25 25 24 24 21 22 20 21 24 26 29 34 36 34 41 40 44 40 46 41 34 41 46 46 44 43
36 36 38 39 39 37 37 36 37 38 35 34 33 32 30 29 28 28 25 24 24 24 23 20 20 19 20 19 20 21 23 31 27 30 41 43 39 39 36 37 38 38 39 41 42
38 40 41 40 40 37 36 37 38 37 34 33 33 33 30 30 29 28 26 25 24 24 23 21 18 18 17 18 19 24 20 22 26 17 31 40 39 39 38 37 38 35 37 38 39
43 43 43 42 40 37 36 37 37 35 34 34 33 33 30 31 30 29 27 26 26 24 24 23 21 19 17 16 17 15 17 19 19 20 18 35 39 37 37 37 37 38 38 39 38
47 50 46 42 38 35 36 35 35 33 33 33 33 33 31 31 30 30 29 29 28 27 26 25 23 22 19 14 17 17 14 14 13 19 22 22 28 30 40 40 40 36 38 38 38
51 46 41 38 37 34 34 34 34 33 32 33 34 34 33 32 31 31 30 30 30 29 29 25 25 25 22 19 18 19 16 12 13 14 14 19 21 20 24 36 39 39 38 40 40
45 41 38 35 35 32 32 32 31 31 31 35 35 33 33 33 32 33 33 32 31 31 31 29 27 27 25 23 22 21 19 19 16 16 13 12 13 19 20 30 30 35 41 40 39
40 36 34 32 32 30 30 32 31 32 34 36 34 34 34 33 33 34 34 33 33 33 35 33 29 28 27 28 28 26 23 23 20 20 23 18 13 18 18 23 31 34 30 39 43
35 34 32 31 30 30 30 32 32 34 36 37 36 35 33 33 34 34 35 36 35 34 34 33 31 31 32 31 32 29 29 28 27 27 26 26 25 19 19 18 22 29 31 35 34
34 35 34 31 30 30 32 34 35 38 37 37 37 33 33 33 34 35 35 36 36 36 36 37 35 36 36 34 34 33 35 31 31 31 31 28 33 29 25 24 21 19 24 32 33
37 35 34 32 32 33 34 35 36 38 41 38 39 38 38 39 40 41 40 38 37 37 36 35 36 36 34 36 36 34 33 32 30 30 31 29 33 36 33 31 28 26 24 24 31
38 36 35 35 35 36 36 37 37 38 38 40 40 40 41 40 40 41 40 38 37 36 35 35 36 36 35 35 35 34 33 33 32 30 29 32 34 35 36 36 36 34 31 28 27
39 38 38 38 37 37 38 39 39 39 40 42 42 41 41 40 39 40 41 39 39 38 39 38 37 37 37 37 37 36 35 34 35 34 34 36 38 38 38 39 39 41 40 37 33
38 39 38 38 38 40 41 42 42 42 43 43 43 43 42 40 40 41 42 43 41 40 40 41 39 40 40 40 39 38 37 36 37 38 39 40 41 41 42 42 43 44 43 41 38
43 42 43 44 44 45 45 45 45 45 45 45 44 44 43 41 42 42 43 45 43 42 42 43 43 44 44 43 43 41 41 42 41 42 43 44 48 46 45 48 45 45 46 43 43
47 46 46 47 47 48 47 45 46 46 46 46 45 45 43 42 43 44 47 45 46 44 44 46 47 47 46 46 46 45 46 46 46 47 49 51 52 50 51 53 56 50 49 49 50
52 50 48 49 48 48 47 46 46 46 46 48 47 46 46 44 45 46 47 46 46 47 46 47 49 49 46 48 48 46 45 46 48 49 51 55 55 53 54 55 56 55 48 47 47
53 51 50 50 49 47 46 46 46 45 47 49 48 47 47 46 43 43 43 44 45 45 46 47 48 48 48 45 45 47 48 48 49 50 53 55 56 56 52 51 51 52 52 45 48
53 52 51 49 49 47 45 45 45 45 47 47 48 47 44 42 40 41 42 44 44 42 42 45 46 46 48 49 49 48 47 49 52 53 54 54 54 53 51 50 50 54 56 55 52
54 52 51 49 47 45 45 47 44 44 45 46 45 43 41 41 41 41 41 41 40 41 41 43 45 45 46 48 49 48 48 51 54 54 59 53 55 50 52 53 54 56 58 60 67
52 52 51 49 46 46 47 44 44 45 45 43 42 41 39 39 41 40 39 38 39 41 43 44 46 48 49 49 51 54 51 56 55 58 60 59 61 56 56 57 58 60 61 63 64
51 50 50 48 48 48 46 42 42 40 39 37 38 39 39 39 38 38 38 37 38 39 43 46 49 53 53 54 57 57 55 59 59 59 61 63 60 62 65 66 64 63 63 65 66
Wind_Direction
300 300 301 305 306 305 304 304 305 307 306 307 308 307 303 296 295 296 298 297 297 298 300 296 296 290 277 261 255 253 252 250 250 248 242 241 240 239 239 236 237 243 240 237 240
299 300 302 304 305 304 306 306 306 306 306 305 307 305 300 293 292 292 292 292 294 298 299 300 294 296 274 255 253 254 253 251 249 250 244 239 239 240 238 239 236 241 246 242 241
298 299 300 303 305 306 309 311 307 305 305 304 305 304 298 292 290 292 287 289 292 294 298 300 302 300 281 257 254 253 253 251 249 243 250 245 243 242 243 238 235 237 243 247 248
295 299 301 302 304 309 309 310 308 304 303 301 302 301 298 292 290 291 292 290 293 294 297 303 304 304 286 263 254 253 256 251 248 247 238 241 235 239 243 240 238 240 245 245 250
296 300 304 306 308 309 310 310 306 302 300 298 299 299 295 291 291 292 292 292 289 294 299 306 306 307 292 271 259 254 254 250 250 248 246 244 241 244 235 234 237 240 242 245 246
300 302 303 306 308 310 310 308 305 302 297 294 293 293 289 291 293 289 292 290 290 294 297 304 306 313 305 285 275 276 258 246 249 243 244 244 245 244 242 245 243 241 244 242 244
301 302 305 307 308 310 310 308 304 299 295 290 286 284 284 286 289 290 293 290 291 295 296 303 307 314 322 288 272 286 265 261 277 245 248 245 244 246 237 241 245 245 243 244 244
300 302 305 306 306 307 307 304 300 296 290 285 283 280 281 283 285 286 290 288 290 294 295 298 304 309 320 318 280 272 267 254 271 267 247 242 241 240 243 243 237 237 240 240 244
304 304 306 306 306 303 301 298 297 295 288 283 281 280 279 281 281 283 286 286 290 291 293 295 300 301 311 318 320 298 272 264 264 273 256 242 240 240 242 238 235 234 238 240 242
303 305 304 302 301 300 299 298 296 292 286 283 281 281 279 279 279 280 282 284 284 286 288 290 291 294 297 299 304 314 312 284 269 260 264 255 243 240 243 242 233 230 233 239 241
301 300 299 299 298 299 298 298 293 290 287 284 282 280 282 280 278 278 279 279 281 283 283 283 285 286 291 292 291 295 298 305 289 277 272 265 256 247 245 237 239 236 229 233 241
297 297 296 297 296 297 296 294 289 288 285 283 282 281 279 277 275 275 276 278 278 279 281 279 280 277 281 283 283 286 287 288 292 289 286 272 275 264 257 252 251 242 241 238 238
292 291 292 294 293 293 293 293 290 287 287 283 281 278 276 276 277 276 275 274 273 275 276 277 271 267 276 276 278 279 276 277 276 275 282 278 274 275 261 253 253 256 250 242 238
287 288 290 289 290 290 291 289 288 287 283 282 275 275 276 275 273 274 272 272 271 271 273 272 270 268 269 270 273 272 273 276 275 273 269 274 269 269 270 263 258 253 250 250 248
288 288 285 285 288 289 288 288 286 285 279 282 278 278 278 272 273 268 270 269 269 271 271 271 268 267 269 270 267 268 272 273 272 270 269 272 275 275 265 267 265 262 253 249 247
286 285 282 284 285 285 284 284 284 280 277 280 278 274 275 273 273 273 275 275 273 270 268 267 267 266 264 264 267 269 269 270 268 270 273 273 271 279 274 267 266 261 263 256 249
279 279 277 279 280 280 279 278 279 279 280 276 274 273 274 273 275 276 276 276 274 271 269 266 262 260 262 263 263 264 265 267 269 271 274 279 278 273 275 272 270 268 262 257 253
276 277 277 278 276 274 274 275 275 276 272 272 270 272 273 273 274 275 274 274 272 269 269 266 263 262 261 261 262 262 263 267 272 276 277 279 280 286 285 280 273 269 265 259 257
272 273 273 273 276 275 274 274 274 272 271 271 272 273 273 272 272 272 273 272 271 269 268 267 264 263 262 261 261 261 263 266 269 269 271 275 278 282 287 287 283 277 270 266 256
268 271 271 272 275 274 271 272 274 273 272 272 272 272 273 273 273 273 272 271 271 270 268 267 265 262 263 262 261 265 266 267 270 273 272 271 273 276 277 280 280 277 273 266 260
265 269 270 271 272 272 271 272 273 273 270 270 270 271 272 274 274 274 273 274 273 272 269 267 265 265 264 264 265 266 267 269 270 269 272 270 271 272 272 273 274 269 264 262 260
264 267 268 268 268 269 270 271 271 270 269 269 271 273 275 278 278 278 276 275 274 273 269 267 267 266 268 266 266 266 266 268 268 270 272 273 271 274 275 273 272 273 265 260 256
262 263 265 265 266 267 267 268 269 268 270 271 274 276 280 283 282 281 279 277 275 274 274 271 267 266 265 265 266 267 267 269 271 271 271 271 274 275 272 269 265 263 260 257 251
262 263 264 265 266 266 267 269 269 271 272 275 278 281 285 286 283 282 279 278 279 277 275 272 269 268 267 267 267 269 270 270 268 267 269 270 270 270 270 265 261 256 255 246 234
262 264 264 265 265 266 267 269 272 274 276 280 284 287 288 285 283 283 282 282 279 277 273 270 270 270 271 271 271 269 269 268 269 270 269 272 269 268 265 262 257 255 254 251 246
267 268 266 266 264 265 268 273 277 278 280 285 288 288 284 283 283 283 282 279 276 275 274 273 274 271 270 270 269 267 270 269 271 272 273 273 268 265 263 261 257 255 255 254 250
271 273 273 271 269 270 273 277 276 280 285 286 284 283 283 283 284 281 279 277 275 275 276 276 277 276 274 273 272 271 274 273 270 269 271 268 269 263 261 262 262 258 254 253 253
Height
5787 5786 5785 5784 5782 5781 5778 5776 5773 5771 5767 5764 5760 5756 5753 5751 5749 5746 5744 5742 5739 5734 5731 5727 5722 5718 5714 5715 5717 5717 5720 5724 5727 5729 5734 5734 5737 5740 5743 5747 5750 5752 5756 5760 5763
5782 5781 5779 5778 5776 5774 5772 5770 5767 5765 5761 5757 5754 5750 5746 5744 5742 5740 5738 5735 5732 5728 5724 5720 5716 5712 5707 5707 5709 5710 5714 5716 5719 5720 5723 5726 5730 5734 5738 5742 5746 5746 5748 5753 5757
5776 5774 5773 5772 5770 5768 5766 5763 5760 5757 5754 5750 5747 5743 5739 5737 5736 5733 5730 5728 5726 5722 5717 5713 5709 5705 5702 5702 5703 5704 5708 5708 5711 5712 5714 5720 5723 5727 5730 5736 5740 5741 5742 5745 5748
5769 5768 5767 5765 5764 5761 5758 5755 5751 5749 5747 5744 5739 5736 5734 5731 5730 5726 5723 5721 5720 5717 5712 5708 5705 5700 5697 5697 5696 5697 5699 5698 5703 5703 5705 5710 5715 5719 5722 5729 5729 5732 5733 5737 5739
5763 5762 5761 5759 5757 5754 5750 5747 5744 5741 5738 5735 5732 5730 5727 5724 5723 5720 5717 5715 5714 5710 5706 5703 5700 5696 5692 5691 5690 5690 5691 5691 5695 5696 5698 5701 5707 5709 5714 5717 5720 5723 5727 5729 5731
5756 5754 5753 5751 5748 5746 5742 5739 5736 5733 5731 5728 5725 5722 5720 5719 5716 5714 5711 5709 5707 5705 5702 5698 5696 5692 5688 5685 5685 5684 5682 5684 5687 5687 5690 5693 5698 5700 5709 5706 5710 5715 5717 5721 5722
5748 5746 5745 5742 5739 5736 5734 5731 5728 5726 5722 5720 5718 5715 5714 5713 5710 5708 5705 5704 5702 5700 5697 5694 5691 5689 5684 5681 5679 5677 5676 5676 5677 5679 5683 5684 5690 5694 5695 5699 5704 5708 5710 5711 5714
5739 5738 5735 5732 5730 5727 5725 5723 5720 5717 5714 5712 5710 5708 5707 5705 5704 5702 5700 5698 5696 5694 5693 5690 5687 5685 5682 5678 5674 5671 5671 5672 5672 5671 5674 5679 5684 5684 5687 5692 5696 5699 5701 5703 5705
5731 5728 5726 5724 5721 5718 5716 5714 5711 5709 5706 5704 5702 5701 5700 5699 5698 5697 5695 5693 5691 5690 5688 5686 5684 5681 5679 5676 5673 5669 5668 5668 5668 5667 5668 5672 5676 5678 5680 5683 5687 5690 5692 5693 5696
5720 5720 5717 5714 5713 5709 5707 5705 5703 5701 5698 5696 5695 5696 5694 5693 5691 5690 5689 5687 5685 5684 5683 5681 5679 5677 5675 5672 5671 5668 5666 5664 5664 5664 5663 5666 5669 5672 5672 5671 5674 5677 5682 5684 5687
5711 5709 5707 5705 5704 5700 5699 5697 5697 5695 5691 5689 5688 5687 5686 5685 5684 5683 5682 5680 5679 5678 5676 5675 5674 5672 5670 5668 5666 5665 5665 5663 5661 5659 5660 5661 5661 5664 5658 5661 5666 5670 5670 5677 5680
5701 5700 5698 5695 5695 5691 5690 5689 5687 5687 5684 5681 5680 5679 5677 5677 5676 5675 5675 5674 5673 5670 5669 5669 5668 5666 5664 5663 5662 5661 5661 5660 5660 5658 5657 5656 5657 5653 5654 5656 5657 5660 5665 5669 5673
5690 5689 5688 5686 5684 5683 5681 5682 5680 5678 5677 5674 5672 5670 5669 5669 5667 5666 5666 5665 5664 5663 5661 5661 5660 5659 5658 5657 5656 5656 5655 5654 5655 5654 5652 5654 5654 5648 5650 5651 5651 5653 5657 5660 5664
5681 5679 5678 5676 5675 5674 5673 5673 5670 5668 5667 5666 5663 5661 5661 5660 5658 5657 5656 5656 5655 5654 5653 5653 5652 5652 5651 5650 5649 5649 5647 5647 5647 5647 5646 5646 5646 5646 5645 5645 5646 5647 5649 5652 5654
5670 5669 5668 5666 5666 5665 5665 5662 5661 5660 5656 5657 5655 5653 5652 5651 5649 5649 5647 5646 5646 5646 5646 5644 5644 5643 5642 5642 5641 5641 5640 5639 5638 5637 5637 5639 5636 5637 5640 5640 5640 5640 5641 5642 5645
5660 5659 5659 5658 5656 5656 5654 5652 5651 5650 5645 5646 5645 5644 5642 5641 5639 5638 5637 5637 5636 5635 5635 5634 5633 5633 5633 5631 5631 5631 5631 5630 5629 5628 5627 5629 5629 5626 5630 5633 5634 5634 5635 5635 5636
5650 5649 5647 5646 5645 5644 5644 5642 5641 5638 5638 5636 5634 5632 5631 5630 5629 5628 5627 5627 5626 5625 5624 5624 5623 5623 5622 5622 5622 5621 5621 5620 5620 5619 5620 5616 5617 5618 5620 5623 5624 5625 5627 5628 5627
5640 5639 5637 5636 5634 5633 5632 5631 5630 5629 5627 5624 5622 5621 5620 5619 5619 5617 5617 5616 5615 5614 5614 5613 5614 5614 5613 5613 5612 5611 5611 5611 5608 5609 5609 5606 5604 5607 5610 5612 5615 5615 5616 5618 5620
5627 5627 5626 5625 5624 5623 5622 5619 5619 5619 5617 5614 5612 5611 5609 5608 5607 5606 5605 5605 5604 5604 5604 5602 5603 5602 5602 5602 5603 5602 5601 5601 5599 5599 5598 5597 5597 5597 5599 5600 5602 5604 5606 5607 5609
5615 5615 5615 5613 5612 5610 5609 5608 5607 5606 5605 5603 5601 5599 5598 5597 5597 5595 5594 5594 5593 5593 5592 5591 5590 5590 5589 5590 5590 5590 5590 5589 5588 5587 5586 5586 5584 5588 5591 5590 5591 5591 5593 5596 5597
5601 5601 5600 5598 5598 5597 5597 5596 5594 5593 5592 5591 5588 5586 5586 5585 5584 5583 5581 5582 5581 5580 5579 5578 5578 5579 5577 5578 5578 5578 5577 5576 5574 5575 5574 5575 5574 5579 5580 5579 5579 5581 5581 5581 5584
5586 5587 5586 5585 5585 5583 5583 5583 5583 5580 5579 5578 5576 5575 5574 5573 5572 5571 5570 5568 5568 5566 5565 5564 5564 5565 5564 5562 5563 5563 5564 5562 5558 5562 5560 5559 5565 5567 5565 5565 5565 5564 5567 5569 5569
5573 5573 5572 5571 5571 5570 5569 5570 5569 5568 5567 5565 5564 5564 5563 5562 5560 5558 5557 5556 5554 5552 5551 5551 5549 5550 5549 5549 5549 5547 5548 5547 5544 5544 5545 5544 5552 5549 5551 5551 5551 5549 5549 5553 5555
5560 5560 5559 5558 5558 5558 5557 5557 5556 5557 5555 5553 5552 5552 5551 5550 5547 5545 5544 5543 5542 5540 5539 5536 5537 5537 5535 5532 5532 5533 5533 5531 5527 5527 5528 5532 5534 5534 5533 5534 5535 5532 5534 5537 5537
5547 5547 5547 5546 5546 5546 5546 5546 5545 5545 5544 5543 5542 5542 5540 5537 5535 5533 5531 5531 5530 5527 5526 5523 5523 5523 5521 5517 5516 5517 5519 5512 5510 5512 5505 5521 5512 5525 5516 5515 5516 5515 5517 5520 5520
5536 5537 5536 5536 5535 5535 5534 5536 5536 5534 5533 5532 5530 5529 5527 5525 5523 5522 5520 5518 5516 5514 5511 5510 5509 5507 5506 5503 5499 5499 5506 5497 5499 5495 5489 5492 5491 5500 5498 5495 5498 5499 5500 5502 5505
5525 5525 5524 5525 5524 5525 5525 5525 5523 5522 5522 5520 5517 5516 5515 5513 5511 5509 5508 5506 5505 5503 5499 5496 5492 5488 5489 5486 5481 5486 5491 5483 5480 5479 5474 5469 5478 5473 5474 5474 5476 5476 5481 5483 5485